Regional Weather Roundup
Issued by NWS

Home | Current Version | Previous Version | Text Only | Print | Product List | Glossary On
Versions: 1 2 3 4 5 6 7 8 9 10 11 12 13 14 15 16 17 18 19 20 21 22 23 24 25 26 27 28 29 30 31 32 33 34 35 36 37 38 39 40 41 42 43 44 45 46 47 48 49 50
000
ASUS44 KOUN 211610
RWROK

WEATHER ROUNDUP FOR OKLAHOMA
NATIONAL WEATHER SERVICE NORMAN OK
1100 AM CDT TUE OCT 21 2014

NOTE: "FAIR" INDICATES FEW OR NO CLOUDS BELOW 12,000 FEET WITH NO
      SIGNIFICANT WEATHER AND/OR OBSTRUCTIONS TO VISIBILITY.

OKZ001>007-009>012-014-015-017-211700-
NORTHWEST OKLAHOMA AND THE PANHANDLE

CITY           SKY/WX    TMP DP  RH WIND       PRES   REMARKS
GAGE           SUNNY     75  56  51 S12       30.10R
ENID/WOODRING  PTSUNNY   73  63  68 S9        30.08F
$$

OKZ016-021>023-033>039-044-045-211700-
SOUTHWEST OKLAHOMA

CITY           SKY/WX    TMP DP  RH WIND       PRES   REMARKS
LAWTON/REGL    SUNNY     71  59  65 S7        30.11S
LAWTON/FT SILL SUNNY     72  59  64 SW6       30.10S
FREDERICK      SUNNY     73  58  59 CALM      30.08S
CLINTON        SUNNY     73  56  54 S9        30.12S
HOBART         MOSUNNY   73  57  57 SW9       30.11S
ALTUS AFB      SUNNY     73  58  61 S5        30.11S
$$

OKZ018>020-024>031-211700-
CENTRAL OKLAHOMA

CITY           SKY/WX    TMP DP  RH WIND       PRES   REMARKS
OKLAHOMA CITY  MOSUNNY   75  59  57 SW8       30.11R
OKC/WILEY POST SUNNY     75  60  59 SW9       30.10S
OKC/TINKER AFB SUNNY     75  59  58 SW7       30.11R
STILLWATER     CLOUDY    73  61  65 VRB6      30.10S
GUTHRIE        SUNNY     74  60  61 S5        30.10S
$$

OKZ008-013-054>072-211700-
NORTHEAST OKLAHOMA

CITY           SKY/WX    TMP DP  RH WIND       PRES   REMARKS
TULSA          MOSUNNY   69  62  78 SE7       30.11F
TULSA/JONES    MOSUNNY   70  61  73 S6        30.12S
PONCA CITY     SUNNY     70  61  73 SE8       30.10S
BARTLESVILLE   PTSUNNY   64  60  87 CALM      30.14S
MUSKOGEE       MOSUNNY   69  61  75 VRB3      30.14S
$$

OKZ032-040>043-046>053-073>077-211700-
SOUTH CENTRAL/SOUTHEAST OKLAHOMA

CITY           SKY/WX    TMP DP  RH WIND       PRES   REMARKS
ARDMORE/DWNTWN SUNNY     72  59  64 CALM      30.11F
MCALESTER      CLOUDY    71  61  70 CALM      30.13S
$$



USA.gov is the U.S. government's official web portal to all federal, state and local government web resources and services.